HAWK-7A

Last updated on Tue Sep 22 2026 00:03:52 GMT+0000 (Coordinated Universal Time)

1 56191U 23054P 26263.66866011 .00003602 00000+0 13361-3 0 9996 2 56191 97.2540 148.5557 0004591 69.5793 290.5940 15.28217771191601
UTC large
Height (km)
Speed (km/s)
/
Latitude / Longitude
Inclination (degrees)
Orbital Period (minutes)
Azimuth
Elevation
Range (km)
Doppler Factor

Next 0 passes for location: London (51.5072 / 0.1276)

No passes found over London.
HAWK-7A